Location: Melbourne
(37.8170°S, 144.9670°E)
Time: 05:44:00
(UTC+11:00)

deb Explorer IX - All Passes

Search period start: 18 October 2017 00:00
Search period end: 28 October 2017 00:00
Orbit: 541 x 1123 km, 38.8° (Epoch: 17 October)

Date Brightness Start Highest point End Pass type
(mag) Time Alt. Az. Time Alt. Az. Time Alt. Az.
18 Oct - 08:52:00 10° NNE 08:54:18 13° NE 08:56:45 10° ENE daylight
18 Oct - 10:35:21 10° NW 10:40:30 49° NNE 10:46:37 10° E daylight
18 Oct - 12:21:49 10° W 12:27:46 87° S 12:34:45 10° E daylight
18 Oct - 14:09:00 10° W 14:15:32 89° S 14:22:54 10° E daylight
18 Oct - 15:56:22 10° W 16:03:07 52° NNW 16:10:19 10° NE daylight
18 Oct - 17:45:12 10° W 17:50:03 19° NW 17:54:56 10° N daylight
19 Oct - 08:32:03 10° NNE 08:34:20 13° NE 08:36:46 10° ENE daylight
19 Oct - 10:15:30 10° NW 10:20:31 50° NNE 10:26:30 10° E daylight
19 Oct - 12:01:59 10° W 12:07:46 86° S 12:14:36 10° E daylight
19 Oct - 13:49:07 10° W 13:55:29 90° S 14:02:46 10° ENE daylight
19 Oct - 15:36:26 10° W 15:43:01 51° NNW 15:50:09 10° NE daylight
19 Oct - 17:25:20 10° W 17:29:56 18° NW 17:34:38 10° N daylight
20 Oct - 08:12:06 10° NNE 08:14:21 13° NE 08:16:47 10° ENE daylight
20 Oct - 09:55:40 10° NW 10:00:34 51° NNE 10:06:23 10° E daylight
20 Oct - 11:42:09 10° W 11:47:46 85° S 11:54:27 10° E daylight
20 Oct - 13:29:14 10° W 13:35:27 89° NNW 13:42:37 10° ENE daylight
20 Oct - 15:16:30 10° W 15:22:56 49° NNW 15:29:58 10° NE daylight
20 Oct - 17:05:30 10° WNW 17:09:50 17° NW 17:14:17 10° N daylight
21 Oct - 07:52:09 10° NNE 07:54:24 13° NE 07:56:48 10° ENE daylight
21 Oct - 09:35:51 10° NW 09:40:37 52° NNE 09:46:17 10° E daylight
21 Oct - 11:22:20 10° W 11:27:48 84° S 11:34:18 10° E daylight
21 Oct - 13:09:21 10° W 13:15:25 88° NNW 13:22:28 10° ENE daylight
21 Oct - 14:56:36 10° W 15:02:51 47° NNW 15:09:45 10° NE daylight
21 Oct - 16:45:43 10° WNW 16:49:43 16° NW 16:53:53 10° N daylight
22 Oct - 07:32:12 10° N 07:34:27 14° NE 07:36:51 10° ENE daylight
22 Oct - 09:16:02 10° NW 09:20:40 53° NNE 09:26:11 10° E daylight
22 Oct - 11:02:32 10° W 11:07:50 83° S 11:14:10 10° E daylight
22 Oct - 12:49:30 10° W 12:55:24 87° NNW 13:02:18 10° ENE daylight
22 Oct - 14:36:43 10° W 14:42:46 45° NNW 14:49:33 10° NE daylight
22 Oct - 16:25:58 10° WNW 16:29:38 15° NW 16:33:26 10° N daylight
23 Oct - 07:12:14 10° N 07:14:31 14° NE 07:16:56 10° ENE daylight
23 Oct - 08:56:13 10° NW 09:00:45 54° NNE 09:06:06 10° E daylight
23 Oct - 10:42:44 10° W 10:47:53 82° S 10:54:03 10° E daylight
23 Oct - 12:29:40 10° W 12:35:23 86° NNW 12:42:09 10° ENE daylight
23 Oct - 14:16:50 10° W 14:22:43 42° NNW 14:29:19 10° NE daylight
23 Oct - 16:06:18 10° WNW 16:09:33 14° NW 16:12:55 10° NNW daylight
24 Oct - 06:52:17 10° N 06:54:35 14° NE 06:57:01 10° ENE daylight
24 Oct - 08:36:24 10° NW 08:40:50 55° NNE 08:46:02 10° E daylight
24 Oct - 10:22:57 10° W 10:27:57 82° S 10:33:56 10° E daylight
24 Oct - 12:09:50 10° W 12:15:24 84° NNW 12:21:59 10° ENE daylight
24 Oct - 13:56:59 10° W 14:02:40 40° NNW 14:09:06 10° NE daylight
24 Oct - 15:46:45 10° WNW 15:49:29 13° NW 15:52:19 10° NNW daylight
25 Oct - 06:32:19 10° N 06:34:40 14° NE 06:37:07 10° ENE daylight
25 Oct - 08:16:35 10° NW 08:20:56 57° NNE 08:25:59 10° E daylight
25 Oct - 10:03:09 10° W 10:08:01 81° S 10:13:49 10° E daylight
25 Oct - 11:50:01 10° W 11:55:25 83° NNW 12:01:50 10° ENE daylight
25 Oct - 13:37:09 10° W 13:42:37 38° NNW 13:48:51 10° NE daylight
25 Oct - 15:27:20 10° WNW 15:29:25 11° NW 15:31:33 10° NNW daylight
26 Oct - 06:12:20 10° N 06:14:44 15° NE 06:17:15 10° ENE daylight
26 Oct - 07:56:46 10° WNW 08:01:02 58° NNE 08:05:57 10° E daylight
26 Oct - 09:43:22 10° W 09:48:06 80° S 09:53:43 10° E daylight
26 Oct - 11:30:12 10° W 11:35:27 81° NNW 11:41:41 10° ENE daylight
26 Oct - 13:17:20 10° W 13:22:36 36° NNW 13:28:36 10° NE daylight
26 Oct - 15:08:22 10° NW 15:09:21 10° NW 15:10:21 10° NNW daylight
27 Oct - 05:52:21 10° N 05:54:50 15° NE 05:57:24 10° ENE visible
27 Oct - 07:36:57 10° WNW 07:41:09 60° NNE 07:45:55 10° E daylight
27 Oct - 09:23:35 10° W 09:28:12 79° S 09:33:39 10° E daylight
27 Oct - 11:10:24 10° W 11:15:29 79° NNW 11:21:33 10° ENE daylight
27 Oct - 12:57:32 10° W 13:02:35 34° NNW 13:08:22 10° NNE daylight
